Home > Weather > Manizales > Past weeks

Flag for Colombia Weather for the Past 2 Weeks in Manizales, Colombia

Now
72 °F

Passing clouds.


Feels Like: 71 °F
Forecast: 58 / 76 °F
Wind: 5 mph from East

Location: Pereira / Matecana

Current Time: Feb 11, 2016 at 12:15:30 AM

Latest Report: Feb 10, 2016 at 11:00 PM


Visibility: N/A

Pressure: 30.03 "Hg (23.44 "Hg at 2139m altitude)

Humidity: 83%

Dew point: 66 °F

Location of ManizalesLocation

Historic Weather in Manizales — Graph

°F

Manizales Temperature Yesterday

Maximum temperature yesterday: 88 °F (at 5:00 PM)
Minimum temperature yesterday: 68 °F (at 5:00 AM)
Average temperature yesterday: 77 °F

High & Low Weather Summary for the Past Weeks

 TemperatureHumidityPressure
High90 °F (Feb 6, 4:00 PM)94% (Jan 30, 12:00 AM)30.13 "Hg (Jan 30, 12:00 AM)
Low66 °F (Jan 28, 6:00 AM)33% (Feb 6, 4:00 PM)29.84 "Hg (Feb 7, 4:00 PM)
Average76 °F68%30.02 "Hg
* Reported Jan 26 11:00 PM — Feb 10 10:00 PM, Manizales, Weather by CustomWeather, © 2016

Note: Actual official high and low records may vary slightly from our data, if they occured in-between our weather recording intervals... More about our weather records

Advertising

Manizales Weather History for the Previous 24 Hours

 ConditionsComfort  
Time TempWeatherWind HumidityBarometerVisibility
10:00 PM
Wed, Feb 10
73 °FPassing clouds.7 mph78%30.06 "HgN/A
9:00 PM75 °FPassing clouds.3 mph74%30.03 "HgN/A
8:00 PM75 °FPassing clouds.7 mph78%30.00 "HgN/A
7:00 PM77 °FPassing clouds.3 mph61%29.97 "HgN/A
6:00 PM84 °FScattered showers. Scattered clouds.8 mph48%29.94 "HgN/A
5:00 PM88 °FScattered clouds.3 mph43%29.95 "HgN/A
4:00 PM86 °FScattered clouds.3 mph49%29.94 "HgN/A
3:00 PM84 °FScattered clouds.3 mph51%29.97 "HgN/A
2:00 PM84 °FPartly sunny.2 mph51%30.00 "HgN/A
1:00 PM82 °FScattered showers. Scattered clouds.7 mph55%30.02 "HgN/A
12:00 PM82 °FPassing clouds.9 mph58%30.05 "HgN/A
11:00 AM81 °FPassing clouds.5 mph62%30.09 "HgN/A
10:00 AM79 °FPassing clouds.7 mph70%30.10 "HgN/A
9:00 AM75 °FPassing clouds.5 mph69%30.12 "HgN/A
8:00 AM72 °FPassing clouds.7 mph78%30.11 "HgN/A
7:00 AM68 °FScattered clouds.5 mph83%30.08 "HgN/A
6:00 AM68 °FPassing clouds.3 mph83%30.05 "HgN/A
5:00 AM68 °FPassing clouds.2 mph78%30.04 "HgN/A
12:00 AM70 °FPassing clouds.9 mph83%30.04 "HgN/A
Weather by CustomWeather, © 2016

See weather overviewHow to use our weather pages